GFSMW_sfc_30mbdewp_189.txt.gz
Dewpoint
30 35 38 39 40 41 41 45 50 55 64 63 62 60 58 59 59 58 56 55 53 51 49 45 46 46 41 39 40 39 41 39 38 36 36 36 37 37 37 38 39 39 38
38 38 39 40 42 41 41 44 47 51 62 63 62 60 58 58 58 57 56 54 52 51 49 45 46 47 41 41 40 41 40 38 38 35 33 32 34 35 36 36 38 38 37
35 35 36 37 41 42 44 44 45 48 51 62 61 59 58 56 55 55 54 52 52 51 49 48 46 47 43 42 42 42 41 38 38 37 35 32 29 32 35 36 37 39 36
33 34 34 36 38 40 43 45 47 48 50 61 60 58 56 53 53 54 53 51 50 50 50 49 48 48 43 42 42 43 42 39 38 39 39 36 35 29 31 34 36 38 37
28 32 34 36 38 40 42 45 47 47 50 53 61 58 57 56 55 53 51 50 49 49 49 49 48 47 43 42 41 42 42 40 39 38 38 34 35 35 30 31 34 36 36
26 28 31 33 35 37 41 43 45 45 46 50 59 59 57 56 55 53 50 49 48 48 48 48 46 45 43 41 41 42 41 39 39 36 35 31 29 31 32 31 33 34 34
21 21 23 27 32 35 37 40 41 43 45 47 50 57 58 56 54 52 49 48 47 47 47 47 45 45 42 42 40 42 40 39 39 37 34 32 30 29 28 32 32 33 33
21 19 21 24 27 32 34 36 40 40 42 46 48 49 57 56 55 53 49 48 47 47 46 46 45 43 41 39 39 38 38 39 40 37 36 35 35 34 32 32 32 34 32
14 14 20 23 28 29 32 34 37 40 39 43 46 48 49 57 55 53 50 48 48 46 46 45 43 40 38 37 37 37 37 38 38 39 38 37 36 35 35 34 34 33 31
9 13 17 24 31 34 37 38 37 42 45 45 46 47 47 56 55 52 49 48 46 46 45 43 40 39 37 37 37 36 37 37 37 38 36 35 35 36 36 36 34 33 32
8 14 21 27 29 34 36 40 41 42 45 47 48 48 46 54 53 49 48 47 46 45 42 41 38 38 36 36 35 35 36 35 35 36 35 35 35 35 36 35 34 34 32
10 19 23 27 27 31 34 37 41 44 45 47 48 47 47 51 49 47 46 45 42 42 40 38 37 36 35 34 33 34 34 33 33 35 35 34 35 35 35 35 34 33 35
17 21 23 24 27 29 34 36 40 43 45 47 46 46 45 46 46 45 43 41 40 39 38 37 36 35 34 34 33 34 34 34 35 35 35 34 34 35 36 37 37 36 35
19 21 22 30 32 34 34 37 40 43 44 46 45 43 41 41 42 41 40 40 39 38 37 37 36 35 33 33 33 33 33 34 33 33 34 34 35 36 36 36 36 34 35
18 18 22 22 27 32 34 35 39 43 45 45 43 40 40 40 40 40 40 39 39 38 37 37 36 35 34 34 33 33 33 31 32 34 34 33 33 35 36 36 35 34 34
18 20 20 22 28 34 36 38 41 42 44 41 40 40 39 39 39 39 39 39 38 38 37 36 35 35 35 35 34 33 31 29 30 30 30 31 33 30 32 33 33 33 32
24 19 22 31 36 38 40 40 41 41 43 41 38 38 38 38 38 38 38 36 35 35 35 34 35 34 35 34 33 30 29 28 28 27 27 29 30 29 29 26 25 22 19
17 22 32 37 38 38 39 40 41 40 42 40 37 37 37 35 34 33 32 31 32 32 32 32 32 32 32 33 30 29 31 30 30 28 28 26 27 27 26 26 24 23 29
21 32 36 38 38 39 39 40 41 40 41 39 37 35 34 32 31 31 31 31 32 31 31 31 31 31 31 32 31 30 31 31 31 32 32 30 31 24 22 25 26 25 25
26 35 39 38 38 39 40 41 40 40 39 40 37 36 35 33 32 31 31 31 32 31 31 31 32 31 31 31 30 29 29 28 29 30 30 29 25 25 27 27 25 23 22
30 37 36 36 38 38 37 36 37 37 38 40 38 36 35 33 33 32 31 31 31 31 31 31 31 31 31 30 28 28 28 28 27 27 27 27 23 24 24 26 27 25 25
31 37 37 37 37 38 36 34 34 36 37 38 36 35 34 32 33 32 31 32 31 31 31 31 31 31 30 28 28 28 28 28 27 27 27 27 23 23 24 27 27 25 25
34 32 35 35 36 36 35 33 34 33 35 35 34 33 32 32 32 31 31 31 31 31 31 31 30 30 30 29 28 27 28 27 27 30 29 25 23 23 23 24 24 24 25
34 33 33 33 34 34 32 32 32 32 33 32 31 31 31 31 31 32 32 31 31 31 31 30 30 29 29 28 28 28 27 26 29 28 26 24 24 23 24 21 21 23 24
34 33 34 33 33 33 33 32 31 32 32 31 31 31 31 31 31 31 31 32 33 33 32 32 31 29 28 29 29 28 28 29 28 27 25 24 23 21 21 20 19 21 22
33 33 33 33 32 32 32 32 33 32 32 31 31 31 31 31 31 31 31 33 32 33 34 33 32 32 31 30 30 30 29 28 26 25 23 23 23 21 21 20 20 20 22

GFSMW_sfc_30mbdewp_192.txt.gz
Dewpoint
39 39 40 41 44 46 47 48 48 63 65 65 64 64 62 63 63 63 61 60 59 57 55 53 51 48 45 44 44 44 44 44 43 40 40 39 41 41 41 41 41 40 41
36 36 37 39 42 43 47 47 48 49 55 64 64 64 63 62 62 61 60 59 58 57 55 52 49 47 46 45 43 42 43 43 41 39 37 36 37 38 40 41 41 41 40
33 33 35 37 40 42 46 47 48 49 49 52 64 63 62 60 59 59 59 57 57 56 54 53 49 48 47 44 43 43 43 41 41 39 37 33 33 37 38 40 40 40 39
28 30 33 35 38 40 43 46 46 47 47 49 52 61 60 58 58 58 58 57 56 55 54 53 50 50 49 44 43 44 43 41 39 39 41 38 37 34 34 38 41 41 37
25 27 28 29 32 37 39 44 45 44 45 48 50 51 54 60 59 56 56 56 55 54 54 53 51 50 49 46 45 45 44 42 41 40 38 38 35 36 35 35 39 39 38
22 23 23 24 26 30 38 41 41 41 44 45 47 50 50 49 50 57 55 54 54 53 53 52 51 51 49 48 46 46 45 43 41 42 40 37 35 38 34 35 38 37 37
23 21 19 21 25 30 33 37 38 38 40 41 42 45 48 49 48 48 53 54 52 51 51 51 51 51 49 47 46 46 45 44 43 41 41 37 34 36 36 36 38 35 35
16 14 15 21 23 30 36 40 41 41 40 43 44 46 47 48 49 48 48 51 52 51 51 50 50 50 49 46 46 46 45 44 43 41 38 36 37 37 38 37 38 35 35
11 11 13 20 27 32 33 40 40 41 42 43 45 47 48 48 49 48 47 48 53 51 50 50 49 48 48 45 45 45 43 42 41 40 38 37 37 37 38 38 38 35 33
11 12 16 25 28 30 32 33 39 39 41 43 44 45 46 48 48 48 47 48 52 51 49 49 49 47 45 44 44 43 42 41 40 39 39 39 39 38 40 42 39 37 35
10 13 21 24 27 27 34 36 39 39 40 41 44 45 47 48 47 47 47 48 52 50 49 48 47 45 43 43 42 41 40 39 39 39 38 38 38 38 38 38 38 38 38
10 15 20 23 25 32 31 31 36 37 37 38 44 45 46 47 47 45 45 47 51 49 48 47 44 41 41 41 40 39 39 38 38 38 38 37 38 38 38 37 36 36 38
14 18 20 21 23 25 27 31 34 36 38 42 44 45 45 45 44 43 44 46 47 46 45 42 41 39 40 40 39 39 38 38 37 37 36 38 38 38 38 38 38 39 40
16 16 18 23 24 24 28 35 35 38 40 42 44 44 44 44 42 42 42 42 42 41 40 40 39 39 39 39 38 37 36 37 37 37 37 38 38 38 37 39 39 39 37
14 17 22 23 20 25 34 37 38 39 40 42 44 43 42 42 41 40 40 41 40 39 39 38 38 37 37 36 35 35 35 34 35 36 37 38 39 39 39 39 38 38 36
13 20 20 18 24 32 36 38 38 38 40 41 43 41 40 40 39 39 39 39 38 38 38 37 36 35 34 34 34 34 34 33 33 34 36 37 37 36 37 36 34 37 35
16 16 19 24 29 36 37 38 38 40 40 41 42 39 38 38 38 38 38 37 37 37 36 35 34 33 33 34 34 34 33 32 33 34 33 33 32 32 31 29 25 28 30
20 23 24 24 32 37 38 38 38 41 42 41 41 39 37 37 36 35 34 33 33 32 32 32 32 32 32 33 33 33 32 32 33 32 32 33 31 31 29 29 27 28 29
25 25 23 27 35 38 37 38 38 38 39 39 40 39 36 34 33 32 31 31 31 31 31 31 31 31 31 32 32 32 32 31 31 32 32 32 31 31 31 29 27 26 24
25 23 23 36 37 37 37 37 36 36 36 37 37 39 36 33 31 31 31 31 31 31 31 31 31 31 30 31 32 31 31 30 30 31 31 31 31 29 28 27 25 23 23
23 23 35 37 37 36 37 36 35 34 35 35 36 38 36 32 32 31 31 31 31 31 31 30 31 31 31 31 31 32 30 29 29 28 28 27 27 28 28 26 24 23 23
20 24 37 36 37 36 36 33 32 33 33 33 34 35 34 32 32 31 31 31 31 31 30 30 29 30 31 31 32 31 31 30 28 27 27 26 27 27 28 29 26 24 24
19 29 36 36 36 35 35 31 31 32 31 33 33 33 32 31 32 31 31 31 31 31 30 29 28 28 30 31 32 31 30 29 28 28 27 25 25 26 28 27 26 25 26
27 36 36 34 34 34 33 32 31 31 32 32 31 31 31 31 31 31 31 31 31 31 31 30 29 28 28 29 30 29 28 29 30 28 26 25 25 25 26 26 26 26 26
33 38 34 34 33 33 32 32 32 31 31 31 31 31 31 31 31 31 31 31 32 33 32 31 30 28 27 29 29 28 29 30 28 26 25 24 23 23 22 22 23 25 25
37 37 33 33 32 32 32 32 32 32 31 31 31 31 31 31 31 30 30 32 32 33 34 33 32 31 30 29 29 29 30 29 28 26 24 23 23 23 22 21 21 23 24

GFSMW_sfc_30mbdewp_198.txt.gz
Dewpoint
39 39 42 46 47 48 47 47 47 51 59 63 58 61 63 64 64 65 65 65 64 64 63 63 59 56 54 52 49 47 46 46 46 45 44 44 45 46 47 46 45 44 44
37 39 40 43 45 46 47 47 46 48 50 49 53 61 63 63 63 64 64 64 64 64 63 63 61 57 54 52 50 47 45 45 46 43 42 41 41 42 45 45 45 44 44
33 35 36 40 42 43 43 44 45 45 49 50 48 48 53 54 54 56 58 60 61 62 63 63 62 58 56 53 50 48 46 44 45 44 42 38 38 39 42 43 43 42 43
33 33 34 36 39 43 42 40 40 39 47 49 47 46 45 44 51 51 54 55 57 59 59 61 61 60 56 53 50 49 47 46 45 44 42 40 39 38 38 41 42 41 41
23 23 27 28 37 40 41 42 40 40 41 41 42 45 46 49 49 49 48 49 52 54 56 58 58 59 58 55 52 50 48 47 45 45 43 39 39 38 38 38 39 40 40
21 22 24 25 33 36 37 40 39 39 39 40 40 41 41 43 46 47 47 47 48 51 54 56 56 57 57 57 55 52 50 48 48 46 43 40 37 37 36 37 39 38 38
15 16 22 28 30 30 33 40 38 36 38 39 41 43 43 44 45 44 44 43 45 48 48 51 53 53 54 55 56 53 51 50 50 48 45 44 40 35 36 37 38 38 38
13 18 26 26 26 27 31 35 36 34 34 35 35 38 41 42 42 43 44 42 44 46 48 48 48 49 51 53 54 54 53 50 49 49 47 45 43 39 37 39 38 37 37
12 23 24 23 25 27 33 29 29 29 32 36 37 37 38 39 39 39 39 43 47 47 47 47 47 47 47 48 50 51 52 51 50 49 48 46 45 43 41 40 39 36 35
14 21 22 23 27 31 30 29 29 32 34 35 36 37 38 39 40 41 43 45 47 47 46 46 46 46 46 47 48 49 51 51 49 49 48 46 46 43 43 41 39 37 36
17 18 19 24 28 29 26 28 31 34 35 36 37 38 39 39 40 42 44 46 45 44 44 44 44 44 44 45 45 46 49 50 50 49 48 46 46 43 43 42 39 38 37
16 17 20 25 26 23 25 29 33 35 36 38 38 39 40 39 40 41 43 44 44 43 42 43 43 43 41 42 42 43 45 48 50 48 48 46 45 44 43 42 39 38 38
14 15 23 21 21 23 26 28 30 32 36 38 38 39 39 38 40 41 42 44 43 41 41 41 41 39 40 41 43 44 44 44 48 48 47 46 44 43 43 41 40 39 38
13 18 20 21 22 24 25 25 26 31 37 39 39 38 37 39 42 42 43 42 41 40 40 40 39 40 40 42 43 46 47 46 48 48 46 45 43 43 42 41 40 39 38
17 20 22 22 22 23 24 24 26 35 38 37 36 36 37 39 40 41 41 40 40 40 39 39 38 39 40 41 42 43 43 44 44 44 45 44 44 43 43 42 40 39 38
21 22 22 23 22 22 24 26 36 37 37 36 35 35 37 37 39 39 38 39 39 38 37 36 36 36 37 40 41 41 39 40 39 39 41 42 42 42 42 41 40 39 37
20 19 21 22 23 25 32 37 36 36 35 35 35 35 36 37 36 36 36 36 35 35 34 34 33 33 36 38 39 39 38 38 39 39 39 40 41 41 40 39 39 38 38
18 18 20 21 25 35 36 35 35 35 34 34 33 34 35 34 34 34 34 34 33 32 32 32 32 33 34 35 35 35 35 35 36 38 39 38 40 39 38 38 37 37 37
19 20 20 25 35 36 35 34 34 34 33 32 32 33 33 32 33 34 33 32 31 31 31 31 31 31 31 32 33 32 32 32 32 33 35 35 35 36 36 35 34 34 34
20 19 25 35 36 35 34 33 33 32 32 31 32 32 33 33 33 33 32 31 31 31 31 31 31 31 31 32 32 32 31 30 30 31 32 33 34 34 34 33 33 31 32
18 24 35 35 35 34 33 31 32 31 31 32 32 32 33 32 33 32 31 31 31 30 30 30 30 31 31 32 32 32 32 31 30 31 31 32 33 33 33 32 32 29 29
19 34 35 35 34 33 32 31 30 31 32 32 31 31 31 32 31 31 31 31 30 29 28 28 29 30 31 31 32 32 31 31 30 29 31 31 33 32 31 31 29 27 27
31 36 36 34 32 32 31 30 30 31 31 31 31 30 30 31 31 31 31 30 30 29 28 28 28 28 30 30 31 31 30 30 29 31 31 31 30 30 29 28 27 26 26
32 36 34 32 31 31 31 31 31 32 31 31 31 31 30 31 31 31 31 31 30 28 28 27 27 28 28 29 29 29 29 30 30 30 29 28 27 28 27 25 24 24 23
35 36 33 32 31 30 31 31 31 32 31 31 31 31 31 31 30 31 31 31 32 30 28 28 28 27 27 29 30 28 27 28 26 27 27 26 25 24 24 23 24 23 22
36 35 33 32 31 31 31 31 33 33 31 30 30 30 31 31 30 30 30 32 32 32 31 31 30 30 31 31 30 30 29 27 26 24 23 24 24 23 23 23 23 24 23

GFSMW_sfc_30mbdewp_201.txt.gz
Dewpoint
42 44 46 48 49 49 51 55 61 64 62 55 56 60 61 62 63 64 65 65 65 64 64 63 62 59 57 56 55 54 51 47 48 48 47 46 47 48 47 47 47 47 47
40 43 45 45 45 45 45 46 47 48 48 49 55 60 59 58 59 61 62 62 61 62 63 63 63 60 58 57 55 54 52 49 49 45 46 44 44 46 47 46 46 45 45
39 41 43 44 45 44 44 45 47 48 48 49 49 49 50 49 48 48 51 52 56 56 57 58 58 58 59 57 56 54 53 50 48 47 46 42 44 43 44 46 45 44 44
35 37 40 42 42 42 42 41 43 47 48 46 44 42 42 41 44 48 50 50 51 53 55 54 53 55 57 56 57 56 53 52 49 48 48 45 43 43 39 44 45 44 44
32 35 35 39 41 41 40 39 40 41 44 44 45 44 44 46 48 48 48 48 48 49 50 52 54 54 55 55 56 56 54 53 52 49 48 46 43 42 41 40 41 43 43
25 26 31 35 36 38 39 38 36 38 39 40 41 42 41 41 41 42 42 44 46 48 48 49 51 52 53 54 54 54 54 52 52 51 50 48 44 42 41 40 41 41 41
23 23 30 32 31 34 39 38 37 34 33 33 34 36 36 37 38 40 40 40 41 41 39 45 48 50 51 51 51 51 51 52 51 51 50 50 48 47 44 42 41 41 41
19 25 28 27 27 32 34 32 29 28 33 34 32 34 35 37 38 38 38 39 39 39 41 44 47 48 48 48 48 48 49 49 52 51 51 50 49 47 46 44 41 40 38
19 27 25 26 28 32 29 27 27 29 31 30 32 35 36 36 37 38 39 40 41 42 44 46 47 47 47 46 46 46 46 46 47 50 50 50 49 48 47 45 43 39 34
23 24 24 27 30 30 29 27 29 29 30 33 35 36 37 38 39 40 39 39 41 43 45 47 46 45 45 44 45 45 45 45 46 48 50 50 49 48 47 45 44 43 40
21 21 22 27 30 26 24 26 28 30 31 34 36 37 38 39 40 40 38 39 41 43 44 44 44 43 43 43 43 42 43 44 45 46 46 49 50 48 46 45 44 43 42
17 19 24 28 24 22 24 25 27 31 33 35 37 38 39 39 39 38 37 40 41 42 43 44 43 42 41 41 41 42 42 41 41 43 44 46 49 48 46 45 44 43 43
16 20 25 22 22 23 24 27 28 30 32 37 39 38 38 38 37 37 39 41 42 42 42 40 40 41 40 41 40 39 39 39 39 40 41 44 48 47 46 44 44 43 42
14 22 21 21 22 23 25 26 27 31 37 37 37 36 36 36 36 37 38 39 40 40 39 39 40 40 40 39 39 39 39 40 41 42 42 42 44 47 46 44 43 42 40
18 20 21 21 22 22 23 25 31 37 36 35 35 35 36 36 35 35 37 38 38 38 39 39 38 38 38 37 37 38 38 39 40 43 44 44 44 48 46 44 42 40 37
20 21 20 21 21 22 24 31 36 35 35 35 35 35 35 34 33 33 34 35 36 37 37 35 35 35 35 36 36 37 38 39 40 41 46 45 45 45 44 42 41 39 36
20 18 18 19 20 24 31 35 35 35 34 34 34 34 33 32 32 32 34 34 34 34 33 33 33 32 33 34 36 37 38 38 38 40 41 43 44 43 41 40 40 39 36
18 17 18 20 23 33 36 35 34 33 34 33 33 32 32 31 31 33 33 33 33 31 31 31 31 31 32 33 34 35 34 34 35 38 40 40 41 41 40 39 38 38 37
17 17 19 22 33 36 35 33 32 33 33 32 31 31 31 30 32 32 32 32 31 31 31 31 31 31 31 32 33 33 33 32 33 35 35 37 38 39 40 38 37 36 36
19 20 22 33 35 34 33 32 31 32 31 31 30 31 31 30 30 31 31 31 31 31 31 30 31 31 31 32 32 32 32 31 31 32 33 35 35 36 37 36 36 34 34
22 24 30 34 34 33 32 31 31 31 31 30 30 30 31 30 30 31 31 31 31 30 29 30 30 31 31 31 32 32 32 31 31 31 31 33 35 35 35 35 35 33 34
24 31 34 34 33 32 31 30 30 31 30 31 30 30 31 30 30 31 31 31 30 29 28 28 29 30 30 31 31 32 32 32 30 30 31 32 33 33 32 31 32 32 32
27 35 34 33 32 31 31 30 30 30 30 30 30 30 30 30 31 31 31 30 30 29 28 27 27 28 29 29 30 30 31 31 30 30 31 31 31 31 30 30 30 31 30
32 35 34 32 31 30 31 30 31 31 30 29 30 29 30 30 31 31 31 31 30 28 28 27 27 27 28 28 28 29 29 28 28 27 27 27 26 25 25 26 27 27 29
33 35 33 32 31 30 30 30 32 31 29 31 29 29 30 31 30 31 30 31 31 30 28 28 28 27 27 28 29 28 27 27 27 27 26 25 24 23 23 24 24 25 26
36 34 32 31 31 30 31 31 32 30 29 29 29 30 30 31 30 30 30 31 31 31 31 31 30 30 30 30 30 29 29 28 28 25 24 23 23 22 23 23 23 23 24